• In Czech Republic
  • List of Countries
  • For 7 days
  • Water Temperature
  • Satellite Maps
  • Weather Map
  • Weather Widgets
  • user-avatar
    Login

    Hourly Weather Batina

    Today, 23 September, Sunday

    Time Temperature Precipitation Wind Pressure Humidity
    00:00 +21°C° 0 mm 1 mps 676 mmHg 60%
    01:00 +21°C° 0 mm 1 mps 676 mmHg 60%
    02:00 +21°C° 0 mm 1 mps 676 mmHg 61%
    03:00 +20°C° 0 mm 1 mps 676 mmHg 61%
    04:00 +20°C° 0 mm 1 mps 676 mmHg 60%
    05:00 +20°C° 0 mm 1 mps 676 mmHg 60%
    06:00 +21°C° 0 mm 1 mps 676 mmHg 57%
    07:00 +22°C° 0 mm 1 mps 676 mmHg 52%
    08:00 +23°C° 0 mm 1 mps 677 mmHg 47%
    09:00 +24°C° 0 mm 2 mps 677 mmHg 43%
    10:00 +25°C° 0 mm 2 mps 677 mmHg 39%
    11:00 +26°C° 0 mm 2 mps 677 mmHg 36%
    12:00 +27°C° 0 mm 3 mps 677 mmHg 33%
    13:00 +27°C° 0 mm 3 mps 677 mmHg 31%
    14:00 +28°C° 0 mm 3 mps 677 mmHg 30%
    15:00 +28°C° 0 mm 3 mps 676 mmHg 29%
    16:00 +27°C° 0 mm 3 mps 676 mmHg 31%
    17:00 +27°C° 0 mm 3 mps 676 mmHg 34%
    18:00 +26°C° 0 mm 3 mps 676 mmHg 36%
    19:00 +25°C° 0 mm 2 mps 676 mmHg 40%
    20:00 +24°C° 0 mm 2 mps 676 mmHg 44%
    21:00 +24°C° 0 mm 2 mps 676 mmHg 48%
    22:00 +23°C° 0 mm 1 mps 676 mmHg 52%
    23:00 +23°C° 0 mm 1 mps 676 mmHg 55%

    Tomorrow, 24 September, Monday

    Time Temperature Precipitation Wind Pressure Humidity
    00:00 +22°C° 0 mm 1 mps 675 mmHg 58%
    01:00 +22°C° 0 mm 1 mps 675 mmHg 59%
    02:00 +21°C° 0 mm 1 mps 675 mmHg 61%
    03:00 +21°C° 0 mm 1 mps 675 mmHg 62%
    04:00 +21°C° 0 mm 1 mps 675 mmHg 62%
    05:00 +21°C° 0 mm 1 mps 675 mmHg 62%
    06:00 +21°C° 0 mm 1 mps 675 mmHg 62%
    07:00 +22°C° 0 mm 1 mps 675 mmHg 55%
    08:00 +23°C° 0 mm 1 mps 676 mmHg 48%
    09:00 +25°C° 0 mm 2 mps 676 mmHg 41%
    10:00 +26°C° 0 mm 2 mps 676 mmHg 38%
    11:00 +26°C° 0 mm 2 mps 677 mmHg 35%
    12:00 +27°C° 0 mm 2 mps 677 mmHg 32%
    13:00 +28°C° 0 mm 3 mps 676 mmHg 32%
    14:00 +28°C° 0 mm 3 mps 676 mmHg 31%
    15:00 +28°C° 0 mm 4 mps 676 mmHg 30%
    16:00 +28°C° 0 mm 4 mps 676 mmHg 34%
    17:00 +27°C° 0 mm 4 mps 676 mmHg 37%
    18:00 +26°C° 0 mm 4 mps 675 mmHg 41%
    19:00 +25°C° 0 mm 3 mps 676 mmHg 46%
    20:00 +24°C° 0 mm 3 mps 676 mmHg 51%
    21:00 +24°C° 0 mm 2 mps 676 mmHg 56%
    22:00 +23°C° 0 mm 2 mps 676 mmHg 59%
    23:00 +23°C° 0 mm 2 mps 676 mmHg 62%

    Day after tomorrow, 25 September, Tuesday

    Time Temperature Precipitation Wind Pressure Humidity
    00:00 +21°C° 0 mm 2 mps 675 mmHg 65%
    01:00 +21°C° 0 mm 2 mps 675 mmHg 67%
    02:00 +20°C° 0 mm 2 mps 675 mmHg 70%
    03:00 +21°C° 0 mm 1 mps 675 mmHg 72%
    04:00 +21°C° 0 mm 1 mps 675 mmHg 73%
    05:00 +21°C° 0 mm 1 mps 675 mmHg 74%
    06:00 +20°C° 0 mm 1 mps 675 mmHg 75%
    07:00 +21°C° 0 mm 1 mps 675 mmHg 68%
    08:00 +23°C° 0 mm 1 mps 676 mmHg 62%
    09:00 +24°C° 0 mm 2 mps 677 mmHg 56%
    10:00 +25°C° 0 mm 2 mps 677 mmHg 52%
    11:00 +25°C° 0 mm 2 mps 677 mmHg 48%
    12:00 +26°C° 0 mm 3 mps 677 mmHg 44%
    13:00 +27°C° 0.1 mm 3 mps 676 mmHg 42%
    14:00 +27°C° 0.1 mm 3 mps 676 mmHg 41%
    15:00 +27°C° 0.1 mm 3 mps 676 mmHg 40%
    16:00 +26°C° 0.1 mm 3 mps 676 mmHg 42%
    17:00 +26°C° 0.1 mm 3 mps 676 mmHg 45%
    18:00 +25°C° 0.1 mm 3 mps 676 mmHg 47%
    19:00 +24°C° 0.2 mm 3 mps 676 mmHg 52%
    20:00 +24°C° 0.2 mm 2 mps 676 mmHg 57%
    21:00 +23°C° 0.2 mm 2 mps 676 mmHg 61%
    22:00 +21°C° 0.3 mm 2 mps 676 mmHg 63%
    23:00 +21°C° 0.3 mm 2 mps 676 mmHg 66%

    26 September, Wednesday

    Time Temperature Precipitation Wind Pressure Humidity
    00:00 +20°C° 0.3 mm 2 mps 676 mmHg 68%
    01:00 +20°C° 0.1 mm 2 mps 676 mmHg 70%
    02:00 +20°C° 0.1 mm 2 mps 675 mmHg 72%
    03:00 +19°C° 0.1 mm 2 mps 675 mmHg 73%
    04:00 +20°C° 0.3 mm 1 mps 675 mmHg 74%
    05:00 +20°C° 0.3 mm 1 mps 676 mmHg 76%
    06:00 +20°C° 0.3 mm 1 mps 676 mmHg 77%
    07:00 +21°C° 0.4 mm 1 mps 676 mmHg 72%
    08:00 +21°C° 0.4 mm 1 mps 677 mmHg 66%
    09:00 +22°C° 0.4 mm 1 mps 677 mmHg 61%
    10:00 +23°C° 0.6 mm 2 mps 677 mmHg 58%
    11:00 +24°C° 0.6 mm 2 mps 677 mmHg 54%
    12:00 +25°C° 0.6 mm 2 mps 677 mmHg 50%
    13:00 +25°C° 0.7 mm 2 mps 677 mmHg 49%
    14:00 +25°C° 0.7 mm 2 mps 677 mmHg 48%
    15:00 +25°C° 0.7 mm 2 mps 676 mmHg 47%
    16:00 +25°C° 0.4 mm 2 mps 677 mmHg 48%
    17:00 +24°C° 0.4 mm 2 mps 677 mmHg 49%
    18:00 +24°C° 0.4 mm 3 mps 677 mmHg 49%
    19:00 +24°C° 0 mm 3 mps 677 mmHg 52%
    20:00 +23°C° 0 mm 2 mps 677 mmHg 55%
    21:00 +23°C° 0 mm 2 mps 678 mmHg 57%
    22:00 +21°C° 0 mm 2 mps 677 mmHg 61%
    23:00 +21°C° 0 mm 2 mps 677 mmHg 64%

    27 September, Thursday

    Time Temperature Precipitation Wind Pressure Humidity
    00:00 +20°C° 0 mm 2 mps 677 mmHg 67%
    01:00 +20°C° 0 mm 2 mps 677 mmHg 69%
    02:00 +19°C° 0 mm 2 mps 677 mmHg 71%
    03:00 +20°C° 0 mm 1 mps 677 mmHg 74%
    04:00 +20°C° 0.1 mm 1 mps 677 mmHg 75%
    05:00 +19°C° 0.1 mm 1 mps 677 mmHg 76%
    06:00 +19°C° 0.1 mm 1 mps 677 mmHg 77%
    07:00 +20°C° 0.1 mm 1 mps 678 mmHg 71%
    08:00 +20°C° 0.1 mm 2 mps 678 mmHg 65%
    09:00 +21°C° 0.1 mm 2 mps 678 mmHg 59%
    10:00 +23°C° 0 mm 2 mps 678 mmHg 55%
    11:00 +23°C° 0 mm 2 mps 678 mmHg 51%
    12:00 +24°C° 0 mm 2 mps 678 mmHg 47%
    13:00 +25°C° 0.1 mm 2 mps 678 mmHg 45%
    14:00 +25°C° 0.1 mm 2 mps 677 mmHg 44%
    15:00 +25°C° 0.1 mm 2 mps 677 mmHg 42%
    16:00 +25°C° 0 mm 2 mps 677 mmHg 43%
    17:00 +24°C° 0 mm 2 mps 677 mmHg 44%
    18:00 +24°C° 0 mm 3 mps 677 mmHg 44%
    19:00 +24°C° 0 mm 2 mps 677 mmHg 47%
    20:00 +23°C° 0 mm 2 mps 677 mmHg 49%
    21:00 +21°C° 0 mm 2 mps 677 mmHg 51%
    22:00 +21°C° 0 mm 2 mps 677 mmHg 54%
    23:00 +21°C° 0 mm 1 mps 676 mmHg 57%

    28 September, Friday

    Time Temperature Precipitation Wind Pressure Humidity
    00:00 +21°C° 0 mm 1 mps 676 mmHg 59%
    01:00 +20°C° 0 mm 1 mps 676 mmHg 62%
    02:00 +20°C° 0 mm 1 mps 675 mmHg 64%
    03:00 +19°C° 0 mm 1 mps 675 mmHg 67%
    04:00 +19°C° 0 mm 1 mps 675 mmHg 68%
    05:00 +19°C° 0 mm 1 mps 675 mmHg 69%
    06:00 +19°C° 0 mm 1 mps 675 mmHg 71%
    07:00 +20°C° 0 mm 1 mps 675 mmHg 65%
    08:00 +21°C° 0 mm 1 mps 676 mmHg 60%
    09:00 +21°C° 0 mm 2 mps 676 mmHg 55%
    10:00 +23°C° 0 mm 2 mps 676 mmHg 50%
    11:00 +24°C° 0 mm 2 mps 676 mmHg 45%
    12:00 +25°C° 0 mm 2 mps 675 mmHg 40%
    13:00 +25°C° 0 mm 2 mps 675 mmHg 38%
    14:00 +26°C° 0 mm 2 mps 675 mmHg 35%
    15:00 +26°C° 0 mm 2 mps 674 mmHg 33%
    16:00 +26°C° 0 mm 2 mps 674 mmHg 36%
    17:00 +25°C° 0 mm 2 mps 674 mmHg 38%
    18:00 +24°C° 0 mm 2 mps 674 mmHg 41%
    19:00 +24°C° 0 mm 2 mps 674 mmHg 45%
    20:00 +23°C° 0 mm 2 mps 674 mmHg 49%
    21:00 +21°C° 0 mm 2 mps 674 mmHg 52%
    22:00 +22°C° 0 mm 1 mps 674 mmHg 55%
    23:00 +21°C° 0 mm 1 mps 673 mmHg 57%
    Show more